Regional Weather Roundup
Issued by NWS Binghamton, NY

Home | Current Version | Previous Version | Text Only | Print | Product List | Glossary On
Versions: 1 2 3 4 5 6 7 8 9 10 11 12 13 14 15 16 17 18 19 20 21 22 23 24 25 26 27
000
ASUS41 KBGM 170110
RWRBGM
RWRBGM
BINGHAMTON REGIONAL WEATHER ROUNDUP
NATIONAL WEATHER SERVICE BINGHAMTON NY
900 PM EDT WED APR 16 2014

Note: "fair" indicates few or no clouds below 12,000 feet with no
significant weather and/or obstructions to visibility.

* = Station(s) that does not report precipitation, such as rain,
snow, etc, also no thunder or fog.

!NYZ009-015>018-022>025-036-037-044>046-055>057-062-170200
...CENTRAL NEW YORK...

CITY           SKY/WX    TMP DP  RH WIND       PRES   REMARKS
BINGHAMTON     CLEAR     30  15  53 N6        30.48R WCI  24
CORTLAND       FAIR      32  19  59 CALM      30.53R
DANSVILLE      CLEAR     34  19  54 CALM      30.52R
ELMIRA         CLEAR     32  17  54 NE6       30.51R WCI  26
ITHACA         CLEAR     29  19  66 E3        30.53R
HAMILTON       CLEAR     30  18  59 CALM      30.53
MONTICELLO     CLEAR     30  14  51 N5        30.49R WCI  25
NORWICH        CLEAR     28  12  50 N5        30.53S WCI  23
ONEONTA        CLEAR     28  14  54 CALM      30.49R
PENN YAN       CLEAR     31  21  66 NE5       30.53R WCI  26
ROME           CLEAR     30  10  43 N5        30.58R WCI  25
SIDNEY         CLEAR     32  18  55 CALM      30.53R
SYRACUSE       PTCLDY    30  11  45 NW5       30.57R WCI  25
$$

!PAZ038>040-043-044-047-048-072-170200
...NORTHEAST PENNSYLVANIA...

CITY           SKY/WX    TMP DP  RH WIND       PRES   REMARKS
SCRANTON       CLEAR     35  17  47 N6        30.50R WCI  30
TOWANDA*       CLEAR     34  14  44 CALM      30.54R
$$
&&
KEY
WCI = WIND CHILL INDEX
VSB = VISIBILITY
HX  = HEAT INDEX
$$



USA.gov is the U.S. government's official web portal to all federal, state and local government web resources and services.